Flag for Germany Weather past 2 weeks in Limburg an der Lahn, Hesse, Germany

Now
50 °F

Sunny.


Feels Like: 47 °F
Forecast: 37 / 63 °F
Wind: 8 mph from East

Location: Hessen

Current Time: Apr 19, 2015 at 10:12:53 PM

Latest Report: Apr 19, 2015 at 8:50 PM


Visibility: 10 mi

Pressure: 30.18 "Hg

Humidity: 43%

Dew point: 28 °F

Location of Limburg an der LahnLocation

Historic Weather in Limburg an der Lahn — Graph

°F

Limburg an der Lahn temperature yesterday

Maximum temperature yesterday: 52 °F (at 5:20 PM)
Minimum temperature yesterday: 37 °F (at 7:50 AM)
Average temperature yesterday: 46 °F

Past Weeks' High & Low Weather Summary

 TemperatureHumidityPressure
High70 °F (Apr 15, 3:50 PM)100% (Apr 8, 7:50 AM)30.60 "Hg (Apr 8, 7:50 AM)
Low30 °F (Apr 5, 7:20 AM)35% (Apr 10, 3:50 PM)29.92 "Hg (Apr 16, 4:20 PM)
Average51 °F58%30.23 "Hg
* Reported Apr 4 8:20 PM — Apr 19 8:50 PM, Limburg an der Lahn, Weather by CustomWeather, © 2015

Note: Actual official high and low records may vary slightly from our data, if they occured in-between our weather recording intervals... More about our weather records

Advertising

Limburg an der Lahn weather history for previous 24 hours

 ConditionsComfort  
Time TempWeatherWind HumidityBarometerVisibility
8:50 PM
Sun, Apr 19
50 °FSunny.8 mph43%30.18 "Hg10 mi
8:20 PM52 °FSunny.8 mph41%30.15 "Hg10 mi
7:50 PM54 °FSunny.8 mph38%30.15 "Hg10 mi
7:20 PM55 °FSunny.9 mph36%30.15 "Hg10 mi
6:50 PM55 °FSunny.8 mph36%30.15 "Hg10 mi
6:20 PM55 °FSunny.8 mph38%30.12 "Hg10 mi
5:50 PM57 °FSunny.12 mph39%30.12 "Hg10 mi
5:20 PM57 °FSunny.15 mph39%30.12 "Hg10 mi
4:50 PM55 °FSunny.9 mph38%30.12 "Hg10 mi
4:20 PM55 °FSunny.14 mph38%30.12 "Hg10 mi
3:50 PM55 °FSunny.14 mph38%30.12 "Hg10 mi
3:20 PM55 °FPassing clouds.8 mph38%30.12 "HgN/A
2:50 PM54 °FPassing clouds.8 mph41%30.15 "HgN/A
2:20 PM54 °FPassing clouds.8 mph41%30.15 "HgN/A
1:50 PM52 °FSunny.8 mph41%30.15 "Hg10 mi
1:20 PM50 °FPassing clouds.9 mph47%30.15 "HgN/A
12:50 PM50 °FPassing clouds.12 mph47%30.15 "HgN/A
12:20 PM48 °FPassing clouds.10 mph46%30.15 "HgN/A
11:50 AM48 °FPassing clouds.10 mph46%30.15 "HgN/A
10:50 AM46 °FPassing clouds.9 mph50%30.15 "HgN/A
10:20 AM46 °FPassing clouds.9 mph53%30.15 "HgN/A
9:50 AM46 °FPassing clouds.7 mph50%30.15 "HgN/A
9:20 AM45 °FSunny.7 mph57%30.15 "Hg10 mi
8:50 AM43 °FSunny.6 mph61%30.15 "Hg10 mi
8:20 AM43 °FSunny.5 mph61%30.15 "Hg10 mi
7:50 AM39 °FSunny.5 mph65%30.15 "Hg10 mi
Weather by CustomWeather, © 2015

See weather overviewHow to use our weather pages